Tracking 17887 objects as of 11-December-2016
HD Live streaming from Space Station
objects crossing your sky now

MERIDIAN 3

Track MERIDIAN 3 now!
MERIDIAN 3 is classified as:


NORAD ID: 37212
Int'l Code: 2010-058A
Perigee: 1,908.4 km
Apogee: 38,463.6 km
Inclination: 63.1 °
Period: 717.8 minutes
Semi major axis: 26557 km
RCS: 24.3984 m2 (large)
Launch date: November 2, 2010
Source: Commonwealth of Independent States (former USSR) (CIS)
Launch site: PLESETSK MISSILE AND SPACE COMPLEX (PKMTR)

MERIDIAN 3 is a Russian military communications satellite.
Your satellite tracking list
Your tracking list is empty





NASA's NSSDC Master Catalog

Two Line Element Set (TLE):
1 37212U 10058A   16345.57839517  .00000179  00000-0  10000-3 0  9994
2 37212  63.0696  96.7194 6882405 274.1385 169.5264  2.00601419 44730
Source of the keplerian elements: AFSPC